Date,TemperatureHighF,TemperatureAvgF,TemperatureLowF,DewpointHighF,DewpointAvgF,DewpointLowF,HumidityHigh,HumidityAvg,HumidityLow,PressureMaxIn,PressureMinIn,WindSpeedMaxMPH,WindSpeedAvgMPH,GustSpeedMaxMPH,PrecipitationSumIn
2013-1-1,56.7,45.1,37.4,43.0,38.8,35.0,98,81,46,30.28,30.20,14,4,19,0.00
2013-1-2,58.9,47.3,37.3,39.0,34.0,30.0,91,62,40,30.25,30.12,10,4,14,0.00
2013-1-3,59.3,47.0,38.9,46.0,38.6,34.0,91,74,45,30.28,30.16,7,2,9,0.00
2013-1-4,60.5,47.3,38.9,46.0,39.5,37.0,94,76,46,30.29,30.17,7,2,12,0.00
2013-1-5,52.1,46.7,40.7,48.0,44.5,38.0,96,92,83,30.25,30.04,14,5,21,0.34
2013-1-6,56.3,49.3,45.4,50.0,46.6,44.0,96,90,72,30.20,30.05,12,3,16,0.01
2013-1-7,59.5,48.9,40.4,55.0,47.4,40.0,99,94,80,30.27,30.15,12,2,20,0.00
2013-1-8,60.3,48.8,40.8,55.0,47.8,41.0,100,96,81,30.25,30.13,9,2,13,0.01
2013-1-9,54.3,48.0,43.7,53.0,45.6,38.0,99,91,76,30.17,30.02,21,5,35,0.03
2013-1-10,51.9,46.0,40.5,43.0,39.2,36.0,86,77,68,30.23,30.09,20,7,29,0.00
2013-1-11,52.3,46.0,38.3,45.0,39.9,35.0,90,79,72,30.27,30.14,15,6,28,0.00
2013-1-12,51.3,42.3,34.4,41.0,36.1,33.0,94,80,55,30.27,30.14,7,2,9,0.00
2013-1-13,52.1,40.2,30.7,41.0,34.1,24.0,92,79,47,30.28,30.18,14,2,20,0.00
2013-1-14,54.5,42.7,34.3,39.0,30.8,22.0,93,65,38,30.40,30.24,8,2,11,0.00
2013-1-15,56.8,42.5,35.6,45.0,38.4,34.0,97,86,55,30.49,30.40,6,1,9,0.00
2013-1-16,58.0,43.4,34.3,47.0,38.1,32.0,94,83,60,30.45,30.28,8,1,11,0.00
2013-1-17,63.7,47.2,37.1,50.0,40.5,35.0,95,79,51,30.28,30.13,12,4,18,0.00
2013-1-18,67.5,53.1,43.2,43.0,38.4,34.0,85,60,33,30.21,30.11,9,3,11,0.00
2013-1-19,66.2,51.2,42.5,43.0,38.1,35.0,88,63,38,30.23,30.14,10,3,12,0.00
2013-1-20,67.1,51.4,42.2,45.0,38.9,35.0,88,66,33,30.22,30.10,9,2,11,0.00
2013-1-21,65.9,53.6,41.6,44.0,37.3,31.0,91,56,34,30.16,30.05,12,4,18,0.00
2013-1-22,64.7,55.5,47.0,45.0,39.2,34.0,78,56,36,30.10,29.98,12,4,18,0.00
2013-1-23,58.4,53.0,50.2,51.0,47.0,40.0,97,81,50,30.09,29.95,7,2,13,0.38
2013-1-24,61.0,54.2,50.3,57.0,52.6,50.0,98,94,83,30.19,30.07,8,2,12,0.01
2013-1-25,63.1,54.5,50.4,58.0,52.9,50.0,98,94,81,30.19,30.05,8,2,13,0.00
2013-1-26,54.9,51.7,47.0,52.0,47.9,44.0,99,87,73,30.10,30.00,20,8,30,0.00
2013-1-27,54.1,49.1,45.0,46.0,42.8,39.0,89,79,66,30.21,30.09,23,8,33,0.00
2013-1-28,54.9,49.7,45.8,48.0,45.4,40.0,93,85,76,30.31,30.19,25,7,31,0.00
2013-1-29,55.5,50.3,45.1,50.0,46.7,44.0,96,87,73,30.36,30.29,19,6,23,0.00
2013-1-30,63.6,48.8,40.1,53.0,45.3,40.0,98,89,68,30.34,30.26,7,1,8,0.01
2013-1-31,64.4,48.8,40.6,54.0,45.3,40.0,98,88,59,30.30,30.19,5,1,9,0.01